| time (UTC) | temp F | wind direction | speed knots | gust knots | rain 1hr in | rain 24hr in | rain mn in | humidity % | barometer mb |
| 20260902100918 | 86 | 79 | 0.0 | 0.0 | 0.00 | 0.00 | 0.00 | 55 | 1012.9 |
| 20260902100417 | 86 | 72 | 0.0 | 0.0 | 0.00 | 0.00 | 0.00 | 54 | 1012.9 |
| 20260902095912 | 86 | 75 | 0.0 | 0.0 | 0.00 | 0.00 | 0.00 | 53 | 1013.1 |
| 20260902095407 | 86 | 85 | 0.0 | 0.0 | 0.00 | 0.00 | 0.00 | 53 | 1013.0 |
| 20260902094906 | 86 | 91 | 0.0 | 0.0 | 0.00 | 0.00 | 0.00 | 53 | 1012.9 |
| 20260902094402 | 87 | 84 | 0.0 | 0.0 | 0.00 | 0.00 | 0.00 | 52 | 1012.9 |
| 20260902093902 | 86 | 83 | 0.0 | 0.0 | 0.00 | 0.00 | 0.00 | 52 | 1013.0 |
| 20260902093357 | 86 | 93 | 0.0 | 0.0 | 0.00 | 0.00 | 0.00 | 51 | 1013.0 |
| 20260902092856 | 86 | 86 | 0.0 | 0.0 | 0.00 | 0.00 | 0.00 | 51 | 1013.1 |
| 20260902092352 | 86 | 87 | 0.0 | 0.0 | 0.00 | 0.00 | 0.00 | 51 | 1013.1 |
| 20260902091852 | 87 | 75 | 0.0 | 0.0 | 0.00 | 0.00 | 0.00 | 50 | 1012.9 |
| 20260902091347 | 86 | 86 | 0.0 | 0.0 | 0.00 | 0.00 | 0.00 | 50 | 1012.6 |
| 20260902090845 | 87 | 89 | 0.0 | 0.0 | 0.00 | 0.00 | 0.00 | 50 | 1013.0 |
| 20260902090344 | 87 | 82 | 0.0 | 0.0 | 0.00 | 0.00 | 0.00 | 49 | 1012.8 |
| 20260902085843 | 87 | 76 | 0.0 | 0.0 | 0.00 | 0.00 | 0.00 | 49 | 1012.9 |
| 20260902085338 | 87 | 84 | 0.0 | 0.0 | 0.00 | 0.00 | 0.00 | 49 | 1012.9 |
| 20260902084834 | 87 | 81 | 0.0 | 0.0 | 0.00 | 0.00 | 0.00 | 50 | 1013.0 |
| 20260902084330 | 88 | 78 | 0.0 | 0.0 | 0.00 | 0.00 | 0.00 | 49 | 1013.1 |
| 20260902083826 | 88 | 83 | 0.0 | 0.0 | 0.00 | 0.00 | 0.00 | 47 | 1012.7 |
| 20260902083325 | 89 | 93 | 0.0 | 0.0 | 0.00 | 0.00 | 0.00 | 46 | 1013.0 |
| 20260902082820 | 90 | 92 | 0.0 | 0.0 | 0.00 | 0.00 | 0.00 | 44 | 1012.9 |
| 20260902082317 | 90 | 102 | 0.0 | 0.0 | 0.00 | 0.00 | 0.00 | 44 | 1013.0 |
| 20260902081813 | 90 | 97 | 0.0 | 0.0 | 0.00 | 0.00 | 0.00 | 43 | 1012.9 |
| 20260902081308 | 90 | 114 | 0.0 | 0.0 | 0.00 | 0.00 | 0.00 | 43 | 1013.1 |
| 20260902080803 | 91 | 79 | 0.0 | 0.0 | 0.00 | 0.00 | 0.00 | 43 | 1013.1 |
| 20260902080300 | 91 | 117 | 0.0 | 0.0 | 0.00 | 0.00 | 0.00 | 42 | 1013.1 |
| 20260902075759 | 90 | 143 | 0.0 | 1.7 | 0.00 | 0.00 | 0.00 | 43 | 1013.0 |
| 20260902075255 | 90 | 122 | 0.0 | 0.0 | 0.00 | 0.00 | 0.00 | 43 | 1013.0 |
| 20260902074755 | 89 | 133 | 0.0 | 0.0 | 0.00 | 0.00 | 0.00 | 43 | 1012.8 |
| 20260902074251 | 90 | 97 | 0.0 | 0.0 | 0.00 | 0.00 | 0.00 | 45 | 1012.7 |
| 20260902073746 | 90 | 108 | 0.0 | 0.0 | 0.00 | 0.00 | 0.00 | 45 | 1012.7 |
| 20260902073242 | 89 | 118 | 0.0 | 0.0 | 0.00 | 0.00 | 0.00 | 45 | 1012.7 |
| 20260902072738 | 90 | 99 | 0.0 | 0.0 | 0.00 | 0.00 | 0.00 | 45 | 1012.8 |
| 20260902072234 | 90 | 102 | 0.0 | 0.0 | 0.00 | 0.00 | 0.00 | 46 | 1012.8 |
| 20260902071730 | 90 | 104 | 0.0 | 0.0 | 0.00 | 0.00 | 0.00 | 45 | 1012.9 |
| 20260902071225 | 90 | 120 | 0.0 | 0.9 | 0.00 | 0.00 | 0.00 | 45 | 1012.8 |
| 20260902070721 | 90 | 108 | 0.0 | 0.0 | 0.00 | 0.00 | 0.00 | 45 | 1012.7 |
| 20260902070220 | 91 | 180 | 0.9 | 1.7 | 0.00 | 0.00 | 0.00 | 45 | 1012.5 |
| 20260902065719 | 90 | 216 | 3.5 | 4.3 | 0.00 | 0.00 | 0.00 | 45 | 1012.7 |
| 20260902065215 | 90 | 136 | 0.0 | 0.0 | 0.00 | 0.00 | 0.00 | 46 | 1012.7 |
| 20260902064710 | 90 | 124 | 0.0 | 1.7 | 0.00 | 0.00 | 0.00 | 46 | 1012.4 |
| 20260902064206 | 90 | 111 | 0.0 | 0.0 | 0.00 | 0.00 | 0.00 | 46 | 1012.5 |
| 20260902063701 | 90 | 102 | 0.0 | 0.0 | 0.00 | 0.00 | 0.00 | 46 | 1012.3 |
| 20260902063156 | 90 | 90 | 0.0 | 0.0 | 0.00 | 0.00 | 0.00 | 46 | 1012.5 |
| 20260902062655 | 91 | 84 | 0.0 | 0.0 | 0.00 | 0.00 | 0.00 | 45 | 1012.3 |
| 20260902062150 | 91 | 109 | 0.0 | 0.0 | 0.00 | 0.00 | 0.00 | 44 | 1012.4 |
| 20260902061649 | 91 | 105 | 0.0 | 1.7 | 0.00 | 0.00 | 0.00 | 44 | 1012.4 |
| 20260902061145 | 91 | 104 | 0.0 | 0.9 | 0.00 | 0.00 | 0.00 | 44 | 1012.4 |
| 20260902060642 | 91 | 101 | 0.0 | 0.0 | 0.00 | 0.00 | 0.00 | 44 | 1012.7 |
| 20260902060138 | 91 | 112 | 0.9 | 1.7 | 0.00 | 0.00 | 0.00 | 43 | 1012.4 |
| 20260902055633 | 92 | 95 | 0.0 | 0.9 | 0.00 | 0.00 | 0.00 | 43 | 1012.5 |
| 20260902055129 | 92 | 102 | 1.7 | 1.7 | 0.00 | 0.00 | 0.00 | 42 | 1012.4 |
| 20260902054624 | 92 | 109 | 1.7 | 1.7 | 0.00 | 0.00 | 0.00 | 42 | 1012.3 |
| 20260902054120 | 92 | 152 | 0.9 | 4.3 | 0.00 | 0.00 | 0.00 | 42 | 1012.7 |
| 20260902053614 | 92 | 126 | 1.7 | 2.6 | 0.00 | 0.00 | 0.00 | 41 | 1012.6 |
| 20260902053109 | 92 | 103 | 0.0 | 0.9 | 0.00 | 0.00 | 0.00 | 42 | 1012.5 |
| 20260902052609 | 91 | 128 | 0.0 | 0.9 | 0.00 | 0.00 | 0.00 | 42 | 1012.7 |
| 20260902052105 | 92 | 119 | 0.0 | 0.0 | 0.00 | 0.00 | 0.00 | 42 | 1012.5 |
| 20260902051604 | 91 | 98 | 0.0 | 0.0 | 0.00 | 0.00 | 0.00 | 42 | 1012.4 |
| 20260902051103 | 91 | 95 | 0.0 | 0.0 | 0.00 | 0.00 | 0.00 | 43 | 1012.3 |
| 20260902050557 | 92 | 93 | 0.0 | 0.0 | 0.00 | 0.00 | 0.00 | 42 | 1012.6 |
| 20260902050053 | 93 | 102 | 0.0 | 0.0 | 0.00 | 0.00 | 0.00 | 40 | 1012.5 |
| 20260902045549 | 93 | 99 | 0.0 | 0.0 | 0.00 | 0.00 | 0.00 | 40 | 1012.6 |
| 20260902045045 | 93 | 105 | 0.0 | 0.0 | 0.00 | 0.00 | 0.00 | 40 | 1012.2 |
| 20260902044544 | 93 | 102 | 0.0 | 1.7 | 0.00 | 0.00 | 0.00 | 40 | 1012.3 |
| 20260902044040 | 93 | 106 | 0.0 | 0.0 | 0.00 | 0.00 | 0.00 | 41 | 1012.1 |
| 20260902043535 | 93 | 98 | 0.0 | 0.0 | 0.00 | 0.00 | 0.00 | 40 | 1012.3 |
| 20260902043031 | 93 | 114 | 0.0 | 0.0 | 0.00 | 0.00 | 0.00 | 40 | 1012.2 |
| 20260902042530 | 93 | 105 | 0.0 | 0.0 | 0.00 | 0.00 | 0.00 | 40 | 1012.4 |
| 20260902042026 | 93 | 102 | 0.0 | 0.0 | 0.00 | 0.00 | 0.00 | 41 | 1012.3 |
| 20260902041526 | 93 | 113 | 0.0 | 0.0 | 0.00 | 0.00 | 0.00 | 40 | 1012.2 |
| 20260902041021 | 93 | 106 | 0.0 | 0.0 | 0.00 | 0.00 | 0.00 | 40 | 1012.1 |
| 20260902040520 | 93 | 103 | 0.0 | 0.0 | 0.00 | 0.00 | 0.00 | 40 | 1012.0 |
| 20260902040021 | 93 | 99 | 0.0 | 0.0 | 0.00 | 0.00 | 0.00 | 40 | 1012.0 |
| 20260902035514 | 93 | 101 | 0.0 | 0.0 | 0.00 | 0.00 | 0.00 | 40 | 1012.2 |
| 20260902035009 | 93 | 100 | 0.0 | 0.0 | 0.00 | 0.00 | 0.00 | 40 | 1012.1 |
| 20260902034509 | 92 | 95 | 0.0 | 0.0 | 0.00 | 0.00 | 0.00 | 41 | 1012.0 |
| 20260902034008 | 93 | 91 | 0.0 | 0.0 | 0.00 | 0.00 | 0.00 | 40 | 1012.2 |
| 20260902033508 | 93 | 86 | 0.0 | 0.0 | 0.00 | 0.00 | 0.00 | 40 | 1011.9 |
| 20260902033007 | 93 | 78 | 0.0 | 0.0 | 0.00 | 0.00 | 0.00 | 39 | 1011.7 |
| 20260902032501 | 93 | 85 | 0.0 | 0.0 | 0.00 | 0.00 | 0.00 | 39 | 1011.5 |
| 20260902031956 | 93 | 94 | 0.0 | 0.0 | 0.00 | 0.00 | 0.00 | 39 | 1011.6 |
| 20260902031451 | 93 | 95 | 0.0 | 0.0 | 0.00 | 0.00 | 0.00 | 39 | 1011.4 |
| 20260902030948 | 93 | 99 | 0.0 | 0.0 | 0.00 | 0.00 | 0.00 | 40 | 1011.4 |
| 20260902030448 | 94 | 86 | 0.0 | 0.0 | 0.00 | 0.00 | 0.00 | 39 | 1011.3 |
| 20260902025946 | 94 | 73 | 0.0 | 0.0 | 0.00 | 0.00 | 0.00 | 39 | 1011.3 |
| 20260902025442 | 94 | 93 | 0.0 | 0.0 | 0.00 | 0.00 | 0.00 | 39 | 1010.8 |
| 20260902024937 | 94 | 81 | 0.0 | 0.0 | 0.00 | 0.00 | 0.00 | 39 | 1011.1 |
| 20260902024432 | 95 | 98 | 0.0 | 0.9 | 0.00 | 0.00 | 0.00 | 38 | 1011.1 |
| 20260902023927 | 95 | 99 | 0.0 | 0.0 | 0.00 | 0.00 | 0.00 | 38 | 1010.8 |
| 20260902023423 | 95 | 79 | 0.0 | 0.0 | 0.00 | 0.00 | 0.00 | 38 | 1011.0 |
| 20260902022922 | 95 | 86 | 0.0 | 0.0 | 0.00 | 0.00 | 0.00 | 38 | 1011.0 |
| 20260902022417 | 95 | 89 | 0.0 | 0.0 | 0.00 | 0.00 | 0.00 | 37 | 1010.8 |
| 20260902021914 | 95 | 75 | 0.0 | 1.7 | 0.00 | 0.00 | 0.00 | 37 | 1010.7 |
| 20260902021413 | 95 | 82 | 0.0 | 0.0 | 0.00 | 0.00 | 0.00 | 38 | 1010.7 |
| 20260902020909 | 95 | 85 | 0.0 | 0.0 | 0.00 | 0.00 | 0.00 | 38 | 1010.6 |
| 20260902020405 | 95 | 90 | 0.0 | 0.0 | 0.00 | 0.00 | 0.00 | 38 | 1010.6 |
| 20260902015900 | 95 | 92 | 0.0 | 0.0 | 0.00 | 0.00 | 0.00 | 37 | 1010.6 |
| 20260902015355 | 95 | 89 | 0.0 | 0.9 | 0.00 | 0.00 | 0.00 | 37 | 1010.8 |
| 20260902014851 | 95 | 63 | 0.9 | 2.6 | 0.00 | 0.00 | 0.00 | 36 | 1010.7 |
| 20260902014348 | 96 | 89 | 0.9 | 0.9 | 0.00 | 0.00 | 0.00 | 36 | 1010.8 |
| 20260902013846 | 96 | 98 | 0.0 | 0.0 | 0.00 | 0.00 | 0.00 | 36 | 1010.8 |
| 20260902013342 | 96 | 92 | 0.9 | 2.6 | 0.00 | 0.00 | 0.00 | 36 | 1010.5 |
| 20260902012837 | 96 | 73 | 1.7 | 1.7 | 0.00 | 0.00 | 0.00 | 36 | 1010.5 |
| 20260902012333 | 97 | 102 | 0.9 | 1.7 | 0.00 | 0.00 | 0.00 | 36 | 1010.4 |
| 20260902011829 | 97 | 96 | 2.6 | 4.3 | 0.00 | 0.00 | 0.00 | 36 | 1010.6 |
| 20260902011323 | 97 | 115 | 0.0 | 2.6 | 0.00 | 0.00 | 0.00 | 36 | 1010.7 |
| 20260902010823 | 97 | 128 | 1.7 | 2.6 | 0.00 | 0.00 | 0.00 | 35 | 1010.6 |
| 20260902010318 | 97 | 105 | 0.0 | 2.6 | 0.00 | 0.00 | 0.00 | 35 | 1011.0 |
| 20260902005817 | 98 | 122 | 1.7 | 1.7 | 0.00 | 0.00 | 0.00 | 34 | 1011.1 |
| 20260902005312 | 98 | 155 | 0.9 | 1.7 | 0.00 | 0.00 | 0.00 | 36 | 1010.7 |
| 20260902004807 | 98 | 130 | 0.9 | 4.3 | 0.00 | 0.00 | 0.00 | 35 | 1010.6 |
| 20260902004302 | 98 | 121 | 0.0 | 4.3 | 0.00 | 0.00 | 0.00 | 35 | 1010.8 |
| 20260902003802 | 99 | 97 | 0.9 | 1.7 | 0.00 | 0.00 | 0.00 | 35 | 1011.0 |
| 20260902003257 | 98 | 72 | 0.0 | 1.7 | 0.00 | 0.00 | 0.00 | 35 | 1011.4 |
| 20260902002753 | 98 | 206 | 2.6 | 5.2 | 0.00 | 0.00 | 0.00 | 35 | 1011.0 |
| 20260902002252 | 98 | 187 | 1.7 | 4.3 | 0.00 | 0.00 | 0.00 | 35 | 1011.4 |
| 20260902001748 | 99 | 138 | 0.9 | 5.2 | 0.00 | 0.00 | 0.00 | 35 | 1011.3 |
| 20260902001244 | 99 | 151 | 1.7 | 1.7 | 0.00 | 0.00 | 0.00 | 34 | 1011.2 |
| 20260902000743 | 98 | 146 | 0.0 | 1.7 | 0.00 | 0.00 | 0.00 | 34 | 1011.3 |
| 20260902000241 | 98 | 156 | 2.6 | 5.2 | 0.00 | 0.00 | 0.00 | 35 | 1011.3 |
| 20260901235739 | 99 | 150 | 0.9 | 1.7 | 0.00 | 0.00 | 0.00 | 34 | 1011.3 |
| 20260901235234 | 99 | 65 | 0.9 | 2.6 | 0.00 | 0.00 | 0.00 | 35 | 1011.3 |
| 20260901234733 | 99 | 160 | 3.5 | 5.2 | 0.00 | 0.00 | 0.00 | 35 | 1011.4 |
| 20260901234233 | 100 | 104 | 0.0 | 0.9 | 0.00 | 0.00 | 0.00 | 34 | 1011.5 |
| 20260901233728 | 100 | 123 | 0.9 | 2.6 | 0.00 | 0.00 | 0.00 | 34 | 1011.4 |
| 20260901233224 | 98 | 103 | 0.9 | 6.1 | 0.00 | 0.00 | 0.00 | 36 | 1011.4 |
| 20260901232724 | 99 | 131 | 0.9 | 7.8 | 0.00 | 0.00 | 0.00 | 35 | 1011.4 |
| 20260901232220 | 99 | 138 | 1.7 | 4.3 | 0.00 | 0.00 | 0.00 | 35 | 1011.8 |
| 20260901231716 | 98 | 194 | 0.0 | 0.9 | 0.00 | 0.00 | 0.00 | 35 | 1011.6 |
| 20260901231212 | 98 | 110 | 0.9 | 5.2 | 0.00 | 0.00 | 0.00 | 35 | 1011.8 |
| 20260901230707 | 99 | 123 | 0.9 | 7.0 | 0.00 | 0.00 | 0.00 | 35 | 1012.1 |
| 20260901230202 | 98 | 294 | 1.7 | 7.0 | 0.00 | 0.00 | 0.00 | 34 | 1011.8 |
| 20260901225657 | 98 | 124 | 3.5 | 6.1 | 0.00 | 0.00 | 0.00 | 36 | 1011.7 |
| 20260901225157 | 97 | 228 | 2.6 | 7.8 | 0.00 | 0.00 | 0.00 | 37 | 1011.9 |
| 20260901224653 | 100 | 229 | 7.8 | 8.7 | 0.00 | 0.00 | 0.00 | 36 | 1011.7 |
| 20260901224149 | 99 | 103 | 0.0 | 4.3 | 0.00 | 0.00 | 0.00 | 36 | 1012.1 |
| 20260901223644 | 98 | 78 | 2.6 | 4.3 | 0.00 | 0.00 | 0.00 | 37 | 1011.9 |
| 20260901223139 | 98 | 289 | 2.6 | 6.1 | 0.00 | 0.00 | 0.00 | 37 | 1011.9 |
| 20260901222636 | 98 | 217 | 4.3 | 7.0 | 0.00 | 0.00 | 0.00 | 37 | 1012.0 |
| 20260901222131 | 99 | 142 | 0.9 | 4.3 | 0.00 | 0.00 | 0.00 | 37 | 1012.2 |
| 20260901221627 | 98 | 138 | 3.5 | 6.1 | 0.00 | 0.00 | 0.00 | 36 | 1012.1 |
| 20260901221123 | 99 | 126 | 0.0 | 2.6 | 0.00 | 0.00 | 0.00 | 36 | 1012.4 |
| 20260901220622 | 98 | 198 | 1.7 | 4.3 | 0.00 | 0.00 | 0.00 | 37 | 1012.1 |
| 20260901220121 | 99 | 147 | 2.6 | 5.2 | 0.00 | 0.00 | 0.00 | 38 | 1012.1 |
| 20260901215619 | 99 | 119 | 0.9 | 7.0 | 0.00 | 0.00 | 0.00 | 36 | 1012.2 |
| 20260901215114 | 98 | 127 | 4.3 | 6.1 | 0.00 | 0.00 | 0.00 | 37 | 1012.3 |
| 20260901214613 | 97 | 128 | 3.5 | 5.2 | 0.00 | 0.00 | 0.00 | 37 | 1012.5 |
| 20260901214107 | 98 | 122 | 3.5 | 5.2 | 0.00 | 0.00 | 0.00 | 38 | 1012.7 |
| 20260901213607 | 98 | 149 | 1.7 | 6.1 | 0.00 | 0.00 | 0.00 | 37 | 1012.6 |
| 20260901213101 | 98 | 172 | 4.3 | 7.0 | 0.00 | 0.00 | 0.00 | 39 | 1012.5 |
| 20260901212601 | 97 | 114 | 0.0 | 2.6 | 0.00 | 0.00 | 0.00 | 39 | 1012.8 |
| 20260901212058 | 96 | 111 | 0.0 | 7.0 | 0.00 | 0.00 | 0.00 | 40 | 1012.9 |
| 20260901211552 | 97 | 265 | 1.7 | 7.0 | 0.00 | 0.00 | 0.00 | 40 | 1012.9 |
| 20260901211049 | 97 | 206 | 0.9 | 4.3 | 0.00 | 0.00 | 0.00 | 41 | 1013.3 |
| 20260901210544 | 96 | 133 | 0.9 | 2.6 | 0.00 | 0.00 | 0.00 | 41 | 1012.9 |
| 20260901210041 | 96 | 346 | 0.9 | 1.7 | 0.00 | 0.00 | 0.00 | 41 | 1013.3 |
| 20260901205536 | 96 | 117 | 0.0 | 4.3 | 0.00 | 0.00 | 0.00 | 41 | 1013.1 |
| 20260901205035 | 97 | 138 | 2.6 | 6.1 | 0.00 | 0.00 | 0.00 | 41 | 1013.5 |
| 20260901204533 | 97 | 230 | 1.7 | 5.2 | 0.00 | 0.00 | 0.00 | 40 | 1013.4 |
| 20260901204033 | 95 | 104 | 0.0 | 1.7 | 0.00 | 0.00 | 0.00 | 42 | 1013.4 |
| 20260901203532 | 97 | 167 | 1.7 | 4.3 | 0.00 | 0.00 | 0.00 | 41 | 1013.6 |
| 20260901203027 | 95 | 98 | 0.0 | 0.9 | 0.00 | 0.00 | 0.00 | 43 | 1013.6 |
| 20260901202522 | 95 | 240 | 0.9 | 2.6 | 0.00 | 0.00 | 0.00 | 42 | 1013.4 |
| 20260901202018 | 95 | 169 | 3.5 | 4.3 | 0.00 | 0.00 | 0.00 | 42 | 1013.8 |
| 20260901201514 | 95 | 115 | 0.9 | 2.6 | 0.00 | 0.00 | 0.00 | 42 | 1013.8 |
| 20260901201008 | 96 | 169 | 3.5 | 5.2 | 0.00 | 0.00 | 0.00 | 42 | 1013.8 |
| 20260901200503 | 96 | 169 | 3.5 | 4.3 | 0.00 | 0.00 | 0.00 | 41 | 1014.0 |
| 20260901200002 | 95 | 124 | 0.0 | 2.6 | 0.00 | 0.00 | 0.00 | 42 | 1014.2 |
| 20260901195501 | 95 | 134 | 2.6 | 4.3 | 0.00 | 0.00 | 0.00 | 43 | 1014.0 |
| 20260901195000 | 94 | 91 | 0.0 | 1.7 | 0.00 | 0.00 | 0.00 | 44 | 1014.1 |
| 20260901194455 | 95 | 238 | 1.7 | 2.6 | 0.00 | 0.00 | 0.00 | 43 | 1014.3 |
| 20260901193951 | 95 | 136 | 0.9 | 6.1 | 0.00 | 0.00 | 0.00 | 42 | 1014.3 |
| 20260901193451 | 93 | 120 | 0.0 | 4.3 | 0.00 | 0.00 | 0.00 | 45 | 1014.5 |
| 20260901192950 | 93 | 160 | 0.0 | 5.2 | 0.00 | 0.00 | 0.00 | 45 | 1014.6 |
| 20260901192446 | 94 | 108 | 2.6 | 5.2 | 0.00 | 0.00 | 0.00 | 44 | 1014.7 |
| 20260901191942 | 93 | 105 | 1.7 | 1.7 | 0.00 | 0.00 | 0.00 | 44 | 1014.8 |
| 20260901191437 | 94 | 96 | 0.0 | 1.7 | 0.00 | 0.00 | 0.00 | 45 | 1014.8 |
| 20260901190933 | 93 | 105 | 0.9 | 5.2 | 0.00 | 0.00 | 0.00 | 45 | 1015.0 |
| 20260901190434 | 92 | 176 | 1.7 | 2.6 | 0.00 | 0.00 | 0.00 | 45 | 1015.0 |
| 20260901185931 | 92 | 16 | 2.6 | 5.2 | 0.00 | 0.00 | 0.00 | 46 | 1014.9 |
| 20260901185431 | 92 | 197 | 2.6 | 4.3 | 0.00 | 0.00 | 0.00 | 47 | 1015.1 |
| 20260901184926 | 93 | 132 | 0.0 | 4.3 | 0.00 | 0.00 | 0.00 | 46 | 1015.3 |
| 20260901184421 | 92 | 78 | 1.7 | 2.6 | 0.00 | 0.00 | 0.00 | 47 | 1015.2 |
| 20260901183916 | 93 | 159 | 0.0 | 5.2 | 0.00 | 0.00 | 0.00 | 46 | 1015.3 |
| 20260901183416 | 91 | 138 | 1.7 | 2.6 | 0.00 | 0.00 | 0.00 | 48 | 1015.5 |
| 20260901182912 | 93 | 143 | 0.9 | 4.3 | 0.00 | 0.00 | 0.00 | 47 | 1015.4 |
| 20260901182407 | 91 | 126 | 4.3 | 7.0 | 0.00 | 0.00 | 0.00 | 48 | 1015.4 |
| 20260901181902 | 91 | 85 | 1.7 | 4.3 | 0.00 | 0.00 | 0.00 | 49 | 1015.7 |
| 20260901181403 | 92 | 128 | 0.9 | 5.2 | 0.00 | 0.00 | 0.00 | 47 | 1015.6 |
| 20260901180901 | 91 | 94 | 0.9 | 4.3 | 0.00 | 0.00 | 0.00 | 49 | 1015.7 |
| 20260901180400 | 89 | 116 | 0.0 | 0.9 | 0.00 | 0.00 | 0.00 | 50 | 1015.7 |
| 20260901175859 | 91 | 86 | 2.6 | 4.3 | 0.00 | 0.00 | 0.00 | 49 | 1015.7 |
| 20260901175354 | 90 | 100 | 0.0 | 2.6 | 0.00 | 0.00 | 0.00 | 50 | 1015.7 |
| 20260901174849 | 90 | 134 | 4.3 | 5.2 | 0.00 | 0.00 | 0.00 | 50 | 1015.7 |
| 20260901174345 | 90 | 126 | 0.0 | 1.7 | 0.00 | 0.00 | 0.00 | 50 | 1015.8 |
| 20260901173840 | 90 | 99 | 0.0 | 0.9 | 0.00 | 0.00 | 0.00 | 50 | 1015.9 |
| 20260901173335 | 89 | 112 | 1.7 | 4.3 | 0.00 | 0.00 | 0.00 | 51 | 1015.8 |
| 20260901172832 | 91 | 211 | 1.7 | 4.3 | 0.00 | 0.00 | 0.00 | 49 | 1015.9 |
| 20260901172331 | 90 | 155 | 2.6 | 4.3 | 0.00 | 0.00 | 0.00 | 50 | 1016.1 |
| 20260901171829 | 89 | 104 | 0.0 | 2.6 | 0.00 | 0.00 | 0.00 | 52 | 1015.9 |
| 20260901171328 | 89 | 104 | 0.0 | 5.2 | 0.00 | 0.00 | 0.00 | 51 | 1016.1 |
| 20260901170827 | 89 | 179 | 0.9 | 1.7 | 0.00 | 0.00 | 0.00 | 52 | 1015.8 |
| 20260901170322 | 89 | 143 | 2.6 | 4.3 | 0.00 | 0.00 | 0.00 | 51 | 1016.2 |
| 20260901165821 | 88 | 126 | 4.3 | 5.2 | 0.00 | 0.00 | 0.00 | 51 | 1015.7 |
| 20260901165316 | 88 | 114 | 1.7 | 4.3 | 0.00 | 0.00 | 0.00 | 52 | 1015.7 |
| 20260901164813 | 89 | 126 | 1.7 | 5.2 | 0.00 | 0.00 | 0.00 | 51 | 1015.9 |
| 20260901164308 | 87 | 163 | 1.7 | 2.6 | 0.00 | 0.00 | 0.00 | 52 | 1015.9 |
| 20260901163803 | 87 | 71 | 2.6 | 4.3 | 0.00 | 0.00 | 0.00 | 52 | 1015.9 |
| 20260901163303 | 88 | 86 | 1.7 | 2.6 | 0.00 | 0.00 | 0.00 | 51 | 1015.6 |
| 20260901162757 | 86 | 79 | 0.0 | 6.1 | 0.00 | 0.00 | 0.00 | 54 | 1015.5 |
| 20260901162257 | 87 | 80 | 0.0 | 4.3 | 0.00 | 0.00 | 0.00 | 52 | 1015.8 |
| 20260901161756 | 87 | 106 | 1.7 | 4.3 | 0.00 | 0.00 | 0.00 | 54 | 1015.8 |
| 20260901161250 | 86 | 125 | 2.6 | 5.2 | 0.00 | 0.00 | 0.00 | 55 | 1015.7 |
| 20260901160746 | 86 | 93 | 0.9 | 4.3 | 0.00 | 0.00 | 0.00 | 55 | 1015.6 |
| 20260901160242 | 86 | 128 | 4.3 | 6.1 | 0.00 | 0.00 | 0.00 | 54 | 1015.6 |
| 20260901155741 | 85 | 99 | 2.6 | 5.2 | 0.00 | 0.00 | 0.00 | 56 | 1015.8 |
| 20260901155236 | 85 | 65 | 0.0 | 6.1 | 0.00 | 0.00 | 0.00 | 56 | 1015.6 |
| 20260901154731 | 85 | 139 | 3.5 | 5.2 | 0.00 | 0.00 | 0.00 | 55 | 1015.6 |
| 20260901154226 | 85 | 138 | 2.6 | 5.2 | 0.00 | 0.00 | 0.00 | 55 | 1015.6 |
| 20260901153721 | 84 | 76 | 1.7 | 5.2 | 0.00 | 0.00 | 0.00 | 56 | 1015.4 |
| 20260901153220 | 84 | 76 | 1.7 | 6.1 | 0.00 | 0.00 | 0.00 | 56 | 1015.5 |
| 20260901152715 | 83 | 65 | 3.5 | 6.1 | 0.00 | 0.00 | 0.00 | 58 | 1015.4 |
| 20260901152214 | 84 | 88 | 4.3 | 7.0 | 0.00 | 0.00 | 0.00 | 58 | 1015.3 |
| 20260901151710 | 83 | 86 | 2.6 | 6.1 | 0.00 | 0.00 | 0.00 | 59 | 1015.4 |
| 20260901151209 | 83 | 121 | 0.0 | 6.1 | 0.00 | 0.00 | 0.00 | 60 | 1015.4 |
| 20260901150708 | 82 | 110 | 2.6 | 5.2 | 0.00 | 0.00 | 0.00 | 61 | 1015.1 |
| 20260901150207 | 82 | 63 | 5.2 | 7.8 | 0.00 | 0.00 | 0.00 | 62 | 1015.4 |
| 20260901145705 | 82 | 94 | 3.5 | 5.2 | 0.00 | 0.00 | 0.00 | 62 | 1015.2 |
| 20260901145159 | 82 | 67 | 1.7 | 4.3 | 0.00 | 0.00 | 0.00 | 62 | 1015.3 |
| 20260901144655 | 82 | 97 | 4.3 | 6.1 | 0.00 | 0.00 | 0.00 | 62 | 1015.5 |
| 20260901144150 | 81 | 76 | 5.2 | 7.8 | 0.00 | 0.00 | 0.00 | 64 | 1015.3 |
| 20260901143645 | 81 | 69 | 2.6 | 2.6 | 0.00 | 0.00 | 0.00 | 65 | 1015.4 |
| 20260901143142 | 81 | 41 | 3.5 | 5.2 | 0.00 | 0.00 | 0.00 | 65 | 1015.6 |
| 20260901142638 | 80 | 50 | 1.7 | 5.2 | 0.00 | 0.00 | 0.00 | 66 | 1015.3 |
| 20260901142137 | 80 | 72 | 1.7 | 5.2 | 0.00 | 0.00 | 0.00 | 66 | 1015.2 |
| 20260901141631 | 80 | 88 | 4.3 | 6.1 | 0.00 | 0.00 | 0.00 | 66 | 1015.1 |
| 20260901141131 | 80 | 112 | 1.7 | 5.2 | 0.00 | 0.00 | 0.00 | 66 | 1015.2 |
| 20260901140630 | 80 | 106 | 2.6 | 4.3 | 0.00 | 0.00 | 0.00 | 66 | 1015.2 |
| 20260901140129 | 79 | 87 | 1.7 | 2.6 | 0.00 | 0.00 | 0.00 | 67 | 1015.1 |
| 20260901135624 | 79 | 77 | 0.9 | 2.6 | 0.00 | 0.00 | 0.00 | 67 | 1015.3 |
| 20260901135119 | 79 | 93 | 0.9 | 1.7 | 0.00 | 0.00 | 0.00 | 68 | 1015.4 |
| 20260901134616 | 78 | 91 | 0.9 | 2.6 | 0.00 | 0.00 | 0.00 | 68 | 1015.2 |
| 20260901134115 | 78 | 92 | 0.9 | 1.7 | 0.00 | 0.00 | 0.00 | 69 | 1014.9 |
| 20260901133615 | 78 | 107 | 0.9 | 0.9 | 0.00 | 0.00 | 0.00 | 70 | 1015.2 |
| 20260901133113 | 78 | 87 | 0.0 | 0.9 | 0.00 | 0.00 | 0.00 | 70 | 1014.9 |
| 20260901132609 | 77 | 77 | 0.0 | 1.7 | 0.00 | 0.00 | 0.00 | 71 | 1014.9 |
| 20260901132108 | 77 | 77 | 1.7 | 1.7 | 0.00 | 0.00 | 0.00 | 71 | 1014.8 |
| 20260901131607 | 77 | 78 | 0.0 | 2.6 | 0.00 | 0.00 | 0.00 | 72 | 1014.6 |
| 20260901131102 | 76 | 85 | 0.9 | 1.7 | 0.00 | 0.00 | 0.00 | 73 | 1014.6 |
| 20260901130557 | 76 | 88 | 0.0 | 0.9 | 0.00 | 0.00 | 0.00 | 73 | 1014.5 |
| 20260901130056 | 76 | 105 | 0.0 | 0.9 | 0.00 | 0.00 | 0.00 | 74 | 1014.5 |
| 20260901125554 | 76 | 97 | 0.0 | 0.9 | 0.00 | 0.00 | 0.00 | 74 | 1014.7 |
| 20260901125050 | 76 | 92 | 0.0 | 0.9 | 0.00 | 0.00 | 0.00 | 74 | 1014.8 |
| 20260901124550 | 76 | 99 | 0.0 | 0.9 | 0.00 | 0.00 | 0.00 | 75 | 1014.6 |
| 20260901124044 | 76 | 83 | 0.0 | 0.0 | 0.00 | 0.00 | 0.00 | 75 | 1014.6 |
| 20260901123539 | 76 | 92 | 0.0 | 0.0 | 0.00 | 0.00 | 0.00 | 75 | 1014.6 |
| 20260901123039 | 76 | 93 | 0.0 | 0.0 | 0.00 | 0.00 | 0.00 | 75 | 1014.4 |
| 20260901122538 | 76 | 90 | 0.0 | 0.0 | 0.00 | 0.00 | 0.00 | 75 | 1014.5 |
| 20260901122038 | 76 | 58 | 0.0 | 0.0 | 0.00 | 0.00 | 0.00 | 75 | 1014.5 |
| 20260901121538 | 76 | 95 | 0.0 | 0.0 | 0.00 | 0.00 | 0.00 | 75 | 1014.5 |
| 20260901121033 | 76 | 88 | 0.0 | 0.0 | 0.00 | 0.00 | 0.00 | 75 | 1014.2 |
| 20260901120532 | 76 | 82 | 0.0 | 0.0 | 0.00 | 0.00 | 0.00 | 75 | 1014.1 |
| 20260901120028 | 76 | 86 | 0.0 | 0.0 | 0.00 | 0.00 | 0.00 | 75 | 1014.4 |
| 20260901115523 | 76 | 78 | 0.0 | 0.0 | 0.00 | 0.00 | 0.00 | 76 | 1014.1 |
| 20260901115020 | 76 | 73 | 0.0 | 0.0 | 0.00 | 0.00 | 0.00 | 76 | 1014.3 |
| 20260901114516 | 76 | 85 | 0.0 | 0.0 | 0.00 | 0.00 | 0.00 | 76 | 1014.0 |
| 20260901114014 | 76 | 72 | 0.0 | 1.7 | 0.00 | 0.00 | 0.00 | 75 | 1014.0 |
| 20260901113513 | 76 | 76 | 0.0 | 0.9 | 0.00 | 0.00 | 0.00 | 75 | 1014.1 |
| 20260901113009 | 76 | 83 | 0.0 | 1.7 | 0.00 | 0.00 | 0.00 | 75 | 1014.2 |
| 20260901112504 | 76 | 90 | 0.0 | 0.9 | 0.00 | 0.00 | 0.00 | 74 | 1014.0 |
| 20260901111959 | 76 | 79 | 0.0 | 1.7 | 0.00 | 0.00 | 0.00 | 74 | 1014.1 |
| 20260901111457 | 76 | 87 | 0.0 | 1.7 | 0.00 | 0.00 | 0.00 | 74 | 1014.0 |
| 20260901110955 | 76 | 66 | 0.0 | 2.6 | 0.00 | 0.00 | 0.00 | 74 | 1014.0 |
| 20260901110452 | 77 | 64 | 0.0 | 1.7 | 0.00 | 0.00 | 0.00 | 74 | 1013.9 |
| 20260901105947 | 77 | 68 | 0.9 | 1.7 | 0.00 | 0.00 | 0.00 | 73 | 1014.1 |
| 20260901105443 | 77 | 63 | 1.7 | 1.7 | 0.00 | 0.00 | 0.00 | 73 | 1014.0 |
| 20260901104938 | 77 | 81 | 0.0 | 1.7 | 0.00 | 0.00 | 0.00 | 73 | 1014.2 |
| 20260901104434 | 77 | 95 | 0.9 | 1.7 | 0.00 | 0.00 | 0.00 | 73 | 1013.9 |
| 20260901103929 | 77 | 82 | 0.9 | 0.9 | 0.00 | 0.00 | 0.00 | 72 | 1013.8 |
| 20260901103429 | 77 | 93 | 0.0 | 0.9 | 0.00 | 0.00 | 0.00 | 72 | 1014.0 |
| 20260901102929 | 77 | 88 | 0.0 | 0.9 | 0.00 | 0.00 | 0.00 | 71 | 1014.1 |
| 20260901102424 | 77 | 73 | 0.0 | 0.9 | 0.00 | 0.00 | 0.00 | 71 | 1014.1 |
| 20260901101919 | 78 | 93 | 0.9 | 0.9 | 0.00 | 0.00 | 0.00 | 70 | 1014.2 |